Weather History for Green Bay, WI

Change the Weather History Date:

Sunday, November 4, 2012

  Actual Average Record
Temperature  
Mean Temperature 34 °F 40 °F  
Max Temperature 43 °F 48 °F 74 °F (2008)
Min Temperature 25 °F 32 °F 4 °F (1951)
Degree Days  
Heating Degree Days 31 25  
Month to date heating degree days 117 98  
Since 1 July heating degree days 909 924  
Cooling Degree Days 0 0  
Month to date cooling degree days 0 0  
Year to date cooling degree days 786 398  
Moisture  
Dew Point 25 °F    
Average Humidity 73    
Maximum Humidity 92    
Minimum Humidity 53    
Precipitation  
Precipitation 0.00 in 0.07 in 0.94 in (1988)
Month to date precipitation T 0.29  
Year to date precipitation 27.94 26.17  
Snow  
Snow 0.00 in 0.10 in 2.90 in (1962)
Month to date snowfall T 0.2  
Since 1 July snowfall T 0.4  
Since 1 September snowfall T 0.4  
Snow Depth 0.00 in    
Sea Level Pressure  
Sea Level Pressure 30.27 in    
Wind  
Wind Speed 3 mph (North)    
Max Wind Speed 9 mph    
Max Gust Speed 12 mph    
Visibility 10 miles    
Events      
T = Trace of Precipitation, MM = Missing Value Source: NWS Daily Summary

Daily Weather History Graph

Daily Weather History Graph

Search for Another Location

Airport:

Trip Planner

Search our weather history database for the weather conditions in past years. The results will help you decide how hot, cold, wet, or windy it might be!

Date:

Astronomy

Nov. 04, 2012 Rise Set
Actual Time 6:34 AM CST 4:36 PM CST
Civil Twilight 6:04 AM CST 5:07 PM CST
Nautical Twilight 5:29 AM CST 5:42 PM CST
Astronomical Twilight 4:55 AM CST 6:16 PM CST
Moon 9:12 PM CST (11/4) 11:20 AM CST (11/4)
Length of Visible Light 11h 03m
Length of Day
10h 02m
Waning Gibbous, 72% of the Moon is Illuminated
Nov 4
Waning Gibbous
Nov 6
Last Quarter
Nov 13
New
Nov 20
First Quarter
Nov 28
Full

Hourly Weather History & Observations

Time (CST) Temp. Windchill Dew Point Humidity Pressure Visibility Wind Dir Wind Speed Gust Speed Precip Events Conditions
12:53 AM 30.0 °F 25.2 °F 25.0 °F 82% 30.27 in 10.0 mi NNW 4.6 mph - N/A   Overcast
1:53 AM 30.0 °F - 25.0 °F 82% 30.27 in 10.0 mi Calm Calm - N/A   Overcast
1:53 AM 28.9 °F 23.9 °F 24.1 °F 82% 30.27 in 10.0 mi NW 4.6 mph - N/A   Scattered Clouds
2:53 AM 27.0 °F 21.6 °F 24.1 °F 89% 30.27 in 10.0 mi WNW 4.6 mph - N/A   Clear
3:53 AM 28.9 °F 23.9 °F 25.0 °F 85% 30.28 in 10.0 mi North 4.6 mph - N/A   Overcast
4:53 AM 27.0 °F 23.0 °F 24.1 °F 89% 30.28 in 10.0 mi NW 3.5 mph - N/A   Mostly Cloudy
5:53 AM 27.0 °F 23.0 °F 21.9 °F 81% 30.29 in 10.0 mi North 3.5 mph - N/A   Partly Cloudy
6:53 AM 26.1 °F - 21.9 °F 84% 30.30 in 9.0 mi Calm Calm - N/A   Partly Cloudy
7:53 AM 30.9 °F 26.2 °F 26.1 °F 82% 30.31 in 9.0 mi North 4.6 mph - N/A   Scattered Clouds
8:53 AM 33.1 °F 27.7 °F 26.1 °F 75% 30.30 in 10.0 mi North 5.8 mph - N/A   Scattered Clouds
9:23 AM 35.6 °F 29.2 °F 26.6 °F 70% 30.27 in 10.0 mi North 8.1 mph - N/A   Mostly Cloudy
9:33 AM 35.6 °F 29.2 °F 26.6 °F 70% 30.26 in 10.0 mi North 8.1 mph - N/A   Scattered Clouds
9:53 AM 37.0 °F 31.0 °F 26.1 °F 65% 30.29 in 10.0 mi North 8.1 mph - N/A   Partly Cloudy
10:53 AM 39.9 °F 37.8 °F 26.1 °F 58% 30.28 in 10.0 mi NE 3.5 mph - N/A   Mostly Cloudy
11:53 AM 39.0 °F - 25.0 °F 57% 30.27 in 10.0 mi Calm Calm - N/A   Overcast
12:53 PM 39.9 °F - 26.1 °F 58% 30.26 in 10.0 mi Calm Calm - N/A   Mostly Cloudy
1:53 PM 42.1 °F 39.2 °F 26.1 °F 53% 30.25 in 10.0 mi North 4.6 mph - N/A   Scattered Clouds
2:53 PM 39.9 °F 35.1 °F 26.1 °F 58% 30.25 in 10.0 mi East 6.9 mph - N/A   Partly Cloudy
3:53 PM 37.9 °F 32.1 °F 26.1 °F 62% 30.25 in 10.0 mi NE 8.1 mph - N/A   Clear
4:53 PM 33.1 °F 28.7 °F 24.1 °F 70% 30.25 in 10.0 mi ENE 4.6 mph - N/A   Clear
5:53 PM 30.9 °F - 26.1 °F 82% 30.25 in 10.0 mi Calm Calm - N/A   Clear
6:53 PM 28.9 °F - 25.0 °F 85% 30.27 in 10.0 mi Calm Calm - N/A   Clear
7:53 PM 28.0 °F - 24.1 °F 85% 30.26 in 9.0 mi Calm Calm - N/A   Clear
8:53 PM 27.0 °F - 24.1 °F 89% 30.26 in 9.0 mi Calm Calm - N/A   Clear
9:53 PM 28.9 °F 25.2 °F 25.0 °F 85% 30.26 in 8.0 mi NW 3.5 mph - N/A   Overcast
10:53 PM 30.9 °F 26.2 °F 27.0 °F 85% 30.25 in 8.0 mi WNW 4.6 mph - N/A   Overcast